カタログに戻る

ONEWEB-0448

運用中通信PO
NORAD 51641·PAYLOAD·🇬🇧 United Kingdom

打ち上げ Feb 10, 2022 から Guiana Space Centre

Loading…

次のパス (今後24時間)

TLE

最新Source: CelesTrak SupGP

元期: Sep 14, 2026, 23:32 UTC

1 51641C 22012V   26257.98109214 -.00002645  00000+0 -75869-2 0  2572
2 51641  87.8893  18.3989 0001743 103.6641 296.2887 13.10370585    12

AllMySatでONEWEB-0448をリアルタイム追跡

Download on the App Store